Flight Track Log - Related Links

Times and Time Zones

All times are in EDT time to prevent confusion due to time zone crossing. See the ASQ4233 flight status page for this flight to view local times or setup timezone preferences in your user account.

Time Position Orientation Groundspeed Altitude Reporting Facility
EDT Latitude Longitude Course Direction KTS MPH feet Rate Location/Type
Sat 08:44:49 AM 40.6500 -74.2000 48° Northeast 178 205 3,000  Level New York TRACON
Sat 08:46:39 AM 40.7492 -74.1661 15° North 275 316 7,100 2,047 Climbing Boston Center
Sat 08:47:00 AM 40.9877 -73.8289 37° Northeast  Level FlightAware Approximate
Sat 08:47:39 AM 40.7694 -74.0569 76° East 272 313 8,800  Level Boston Center
Sat 08:48:00 AM 41.0669 -73.7415 40° Northeast  Level FlightAware Approximate
Sat 08:48:39 AM 40.8086 -73.9428 66° East 299 344 10,300  Level Boston Center
Sat 08:49:00 AM 41.1475 -73.6572 27° Northeast  Level FlightAware Approximate
Sat 08:49:39 AM 40.8889 -73.8622 37° Northeast 326 375 11,900  Level Boston Center
Sat 08:50:00 AM 41.2161 -73.5841 48° Northeast  Level FlightAware Approximate
Sat 08:50:39 AM 40.9772 -73.7817 35° Northeast 354 407 12,100  Level Boston Center
Sat 08:51:39 AM 41.0617 -73.7036 35° Northeast 397 457 13,400 1,550 Climbing Boston Center
Sat 08:52:39 AM 41.1606 -73.6092 36° Northeast 408 470 15,200 2,000 Climbing Boston Center
Sat 08:53:39 AM 41.2406 -73.5386 34° Northeast 397 457 17,400 2,150 Climbing Boston Center
Sat 08:54:39 AM 41.3350 -73.4492 35° Northeast 384 442 19,500 1,700 Climbing Boston Center
Sat 08:55:39 AM 41.4294 -73.3814 28° Northeast 379 436 20,800 1,100 Climbing Boston Center
Sat 08:56:39 AM 41.5128 -73.3772 North 363 418 21,700 1,050 Climbing Boston Center
Sat 08:57:39 AM 41.6442 -73.3681 North 370 426 22,900 1,150 Climbing Boston Center
Sat 08:58:39 AM 41.7611 -73.3586 North 396 456 24,000 1,050 Climbing Boston Center
Sat 08:59:39 AM 41.8800 -73.3492 North 410 472 25,000 500 Climbing Boston Center
Sat 09:00:39 AM 42.0008 -73.3425 North 426 490 25,000  Level Boston Center
Sat 09:01:39 AM 42.1322 -73.3331 North 439 505 25,000  Level Boston Center
Sat 09:02:39 AM 42.2656 -73.3239 North 463 533 25,000  Level Boston Center
Sat 09:03:39 AM 42.3844 -73.3086 North 476 548 25,000  Level Boston Center
Sat 09:04:39 AM 42.5200 -73.2992 North 482 555 25,000  Level Boston Center
Sat 09:05:39 AM 42.6681 -73.2956 North 477 549 25,000  Level Boston Center
Sat 09:06:39 AM 42.8036 -73.2833 North 477 549 25,000 -150 Level Boston Center
Sat 09:07:39 AM 42.9225 -73.2764 North 477 549 24,700 -500 Descending Boston Center
Sat 09:08:39 AM 43.0497 -73.2669 North 467 537 24,000 -700 Descending Boston Center
Sat 09:09:39 AM 43.1706 -73.2542 North 454 522 23,300 -950 Descending Boston Center
Sat 09:10:39 AM 43.2917 -73.2472 North 442 509 22,100 -1,550 Descending Boston Center
Sat 09:11:39 AM 43.4208 -73.2375 North 437 503 20,200 -1,800 Descending Boston Center
Sat 09:12:39 AM 43.5397 -73.2247 North 425 489 18,500 -1,800 Descending Boston Center
Sat 09:13:39 AM 43.6564 -73.2178 North 420 483 16,600 -1,800 Descending Boston Center
Sat 09:14:39 AM 43.7692 -73.2106 North 415 478 14,900 -1,700 Descending Boston Center
Sat 09:15:39 AM 43.8794 -73.2006 North 403 464 13,200 -1,700 Descending Boston Center
Sat 09:16:39 AM 43.9672 -73.1928 North 374 430 11,500 -1,300 Descending Boston Center
Sat 09:17:39 AM 44.0547 -73.2056 354° North 324 373 10,600 -900 Descending Boston Center
Sat 09:18:39 AM 44.1317 -73.2211 352° North 289 333 9,700 -900 Descending Boston Center
Sat 09:19:39 AM 44.2086 -73.2394 350° North 276 318 8,800 -1,200 Descending Boston Center
Sat 09:20:39 AM 44.2833 -73.2550 352° North 276 318 7,300 -1,500 Descending Boston Center
Sat 09:21:39 AM 44.3500 -73.2850 342° North 261 300 5,800 -1,550 Descending Boston Center
Sat 09:22:39 AM 44.4122 -73.3119 343° North 239 275 4,200 -1,400 Descending Boston Center
Sat 09:23:39 AM 44.4725 -73.3389 342° North 226 260 3,000 -550 Descending Boston Center
Sat 09:24:39 AM 44.5242 -73.3658 340° North 216 249 3,100 -350 Climbing Boston Center
Sat 09:25:39 AM 44.5664 -73.3200 38° Northeast 184 212 2,300 -500 Descending Boston Center
Sat 09:26:39 AM 44.5356 -73.2583 125° Southeast 151 174 2,100 -200 Descending Boston Center

Login

Don't have an account? Register now (free) for customized features, flight alerts, and more!